CST,Max TemperatureF,Mean TemperatureF,Min TemperatureF,Max Dew PointF,MeanDew PointF,Min DewpointF,Max Humidity, Mean Humidity, Min Humidity, Max Sea Level PressureIn, Mean Sea Level PressureIn, Min Sea Level PressureIn, Max VisibilityMiles, Mean VisibilityMiles, Min VisibilityMiles, Max Wind SpeedMPH, Mean Wind SpeedMPH, Max Gust SpeedMPH,PrecipitationIn, CloudCover, Events, WindDirDegrees
2012-12-1,50,42,35,50,43,34,100,93,81,30.17,29.89,29.81,7,4,2,12,6,,0.00,8,,173
2012-12-2,50,42,35,50,41,36,100,95,87,30.06,29.97,29.83,8,4,0,10,6,,0.00,8,Fog,147
2012-12-3,62,50,39,57,48,36,100,94,81,29.96,29.79,29.62,10,4,0,20,10,25,0.14,7,Fog-Rain,160
2012-12-4,46,34,17,34,25,12,84,62,43,30.39,30.12,29.94,10,10,10,18,10,25,0.00,0,,287
2012-12-5,33,22,12,25,15,9,92,68,44,30.47,30.35,30.13,10,10,10,13,5,,0.00,5,,141
2012-12-6,46,39,32,36,31,25,85,73,62,30.10,29.93,29.83,10,10,10,17,11,22,0.00,5,,218
2012-12-7,36,32,28,29,24,22,83,74,60,30.04,30.00,29.95,10,10,10,9,7,,0.00,6,,331
2012-12-8,36,28,20,25,23,18,90,78,56,30.13,30.08,30.00,10,10,10,12,4,,0.00,5,,84
2012-12-9,32,31,30,32,29,25,100,90,75,30.11,29.87,29.74,10,4,1,15,7,18,0.03,8,Snow,62
2012-12-10,32,26,19,30,26,18,100,92,80,29.95,29.81,29.73,10,8,2,13,6,,0.00,8,Snow,329
2012-12-11,24,19,14,21,17,12,93,84,74,30.09,29.94,29.86,10,9,4,15,5,,0.01,7,Snow,221
2012-12-12,41,28,15,25,21,12,100,70,49,30.14,30.10,30.04,10,10,8,17,5,24,0.00,6,,166
2012-12-13,41,31,19,23,21,18,94,63,45,30.15,30.07,30.03,10,10,10,14,9,22,0.00,3,,199
2012-12-14,42,28,15,32,24,14,93,82,57,30.21,30.11,29.96,10,10,10,10,3,,0.00,2,Fog,111
2012-12-15,39,37,35,39,37,32,100,96,81,29.93,29.63,29.51,10,3,0,14,6,18,0.11,8,Fog-Rain,111
2012-12-16,39,34,29,39,36,27,100,98,92,29.75,29.58,29.51,10,6,0,14,5,,0.09,8,Fog-Rain,284
2012-12-17,28,24,19,27,22,18,93,88,86,29.79,29.75,29.70,10,10,9,14,8,,0.00,8,,304
2012-12-18,28,22,17,27,23,16,94,90,86,29.87,29.75,29.64,10,8,1,9,2,,0.07,8,Snow,74
2012-12-19,33,30,28,29,28,26,93,88,80,30.05,29.99,29.90,10,9,2,8,4,,0.01,8,Snow,123
2012-12-20,32,28,23,29,27,18,100,91,74,29.91,29.69,29.47,9,2,1,26,11,39,0.00,8,Snow,360
2012-12-21,23,18,12,18,11,5,80,75,63,30.14,29.98,29.76,10,4,1,24,20,33,0.00,6,Snow,303
2012-12-22,,,,,,,,,,,,,,,,,,,,,,
2012-12-23,26,22,17,16,15,14,86,71,59,30.11,30.08,30.04,10,10,10,10,6,,0.00,6,,331
2012-12-24,,,,,,,,,,,,,,,,,,,,,,
2012-12-25,,,,,,,,,,,,,,,,,,,,,,
2012-12-26,24,16,8,14,10,5,86,76,63,30.31,30.26,30.21,10,10,10,8,5,,0.00,5,,308
2012-12-27,23,18,14,18,15,10,93,84,67,30.28,30.21,30.17,10,7,2,8,4,,0.00,8,Snow,25
2012-12-28,25,22,19,22,20,17,100,90,85,30.17,30.03,29.96,10,5,1,6,3,,0.10,8,Snow,45
2012-12-29,23,12,1,20,12,-2,93,87,78,30.19,30.07,29.96,10,8,0,16,7,,0.00,6,Fog-Snow,281
2012-12-30,26,12,-1,20,9,-5,92,79,63,30.30,30.16,29.94,10,10,8,16,7,21,0.00,3,Snow,210
2012-12-31,25,12,-2,20,9,-6,86,77,63,30.25,30.10,29.95,10,10,7,18,10,22,0.00,5,Snow,293